Terug naar catalogus

STARLINK-36367

ActiefCommunicatieVLEO
NORAD 67629·PAYLOAD·🇺🇸 United States

Gelanceerd Jan 30, 2026 vanaf Cape Canaveral Space Force Station

Loading…

Volgende Passages (komende 24 uur)

TLE

VersSource: CelesTrak SupGP

Epoch: Sep 14, 2026, 22:43 UTC

1 67629C 26020N   26257.94701389 -.00069743  00000+0 -25264-2 0  2571
2 67629  43.0026 150.6983 0001361 273.2509 352.8971 15.27609801    13

Volg STARLINK-36367 in realtime met AllMySat

Download on the App Store